Theta_e
333 341 354 354 353 351 348 346 345 344 343 341 339 338 336 335 334 332 330 330 331 332 333 335 338 340 341 340 341 344 348 351 354 353 354 352 355 356 354 356 359 355 359
335 343 354 354 353 350 350 349 348 348 347 344 343 342 340 338 337 336 334 332 332 333 334 335 336 340 340 340 340 343 344 349 353 353 353 354 355 355 355 354 358 355 357
337 342 350 354 354 352 352 351 351 350 349 346 345 344 342 340 339 339 338 336 335 335 335 335 336 337 341 342 341 342 345 349 352 353 353 349 351 356 356 358 356 356 356
340 343 345 354 353 353 352 352 351 350 350 348 346 345 344 342 340 340 340 339 338 338 337 337 336 337 337 340 342 342 345 346 351 351 348 348 349 357 355 358 355 356 357
340 340 344 354 353 353 353 352 352 351 351 348 347 344 343 342 343 342 342 341 341 340 339 338 337 337 337 339 343 345 345 346 349 350 347 344 345 354 357 355 355 354 355
327 342 350 353 353 353 352 352 352 351 349 347 345 343 341 341 343 343 340 340 340 341 341 340 338 337 338 341 342 344 347 346 346 345 344 345 346 353 358 353 353 357 356
334 343 349 354 354 354 352 351 352 348 345 342 342 342 341 340 340 340 340 340 340 340 340 340 339 338 340 341 341 343 346 345 341 343 343 341 344 350 356 354 356 357 356
331 336 340 351 349 348 348 348 346 342 339 336 336 337 338 338 338 338 338 338 338 338 338 340 339 340 340 339 340 340 343 343 341 342 343 342 345 350 353 353 356 356 356
324 330 333 336 341 348 348 347 343 338 334 333 332 333 333 334 335 335 335 336 336 337 337 340 339 339 339 337 338 340 342 341 339 340 344 342 349 350 352 351 351 351 353
318 319 322 330 332 333 335 340 337 334 334 334 333 332 332 332 331 332 333 334 336 337 337 339 338 338 339 338 339 340 340 341 339 340 343 343 350 351 351 350 350 350 351
318 317 315 318 321 324 327 332 336 336 336 335 332 330 326 323 323 327 331 335 337 337 337 338 338 337 338 336 337 339 340 334 337 339 343 349 350 351 349 348 345 345 348
314 316 318 322 322 323 328 326 326 327 328 326 325 324 322 322 322 327 330 333 334 336 337 337 337 337 335 326 329 338 331 334 334 338 343 349 349 350 348 344 343 344 346
315 318 318 320 323 323 324 325 323 322 323 324 324 324 322 323 322 321 323 325 325 331 328 331 331 330 328 325 325 330 332 331 331 337 343 348 348 349 348 345 343 344 343
314 316 323 325 324 324 326 325 324 325 323 322 323 324 322 322 321 322 323 324 323 325 326 326 325 326 326 325 324 330 331 329 333 336 341 348 347 348 349 347 345 344 343
315 319 323 323 325 327 326 326 325 325 324 323 324 325 324 322 322 323 323 323 322 323 324 324 325 326 325 324 324 330 331 329 337 337 336 347 348 348 347 348 346 343 342
315 320 322 323 325 326 326 325 325 327 326 325 325 325 326 325 324 321 322 322 321 321 323 324 324 325 324 322 324 331 330 332 334 335 338 343 346 345 346 346 344 343 343
315 321 321 322 324 323 323 325 327 327 328 325 325 325 327 327 326 322 322 321 321 321 323 324 324 324 324 325 326 330 330 333 334 336 336 339 341 344 345 345 344 344 344
318 320 321 325 322 322 324 325 326 327 326 326 327 325 325 327 326 322 322 322 322 321 321 322 322 322 325 324 324 325 327 331 334 336 337 338 340 340 344 344 343 342 343
317 320 320 322 321 323 324 325 326 327 326 327 327 324 323 323 325 323 323 323 322 321 321 322 322 323 321 322 325 325 327 326 332 338 337 338 338 338 338 341 342 342 343
320 321 320 320 322 324 323 326 324 326 327 328 326 324 325 323 325 323 323 324 322 320 320 321 320 322 322 322 328 327 327 327 331 336 335 337 337 336 336 336 337 338 340
320 321 321 321 321 321 320 322 321 321 324 325 327 326 325 323 322 321 323 323 323 320 320 321 321 320 321 321 321 324 325 327 329 334 335 334 334 334 333 334 334 333 334
318 320 323 321 321 321 322 325 324 325 326 327 327 326 326 327 325 324 323 322 323 321 321 321 320 319 318 322 319 320 319 323 327 332 333 332 332 331 332 333 332 333 333
316 318 322 322 320 323 325 326 324 325 325 325 325 324 325 326 327 325 325 323 322 322 321 321 321 319 317 321 326 320 314 313 322 328 329 330 329 330 331 330 331 333 333
318 320 323 321 320 324 324 323 322 320 320 323 325 326 325 327 326 326 325 324 322 322 322 323 323 323 323 321 323 325 322 322 319 318 326 327 328 328 328 329 330 331 332
319 319 320 320 321 324 324 323 323 322 324 325 323 323 321 324 326 327 325 323 322 322 322 324 319 324 324 321 323 320 321 322 325 321 318 321 326 327 327 328 330 331 332
318 319 321 321 321 324 325 323 323 322 324 322 320 321 322 324 324 326 326 324 323 322 323 323 322 323 322 324 322 322 322 319 322 321 319 320 321 324 327 329 329 331 333
Wind_Speed
6 14 20 19 17 16 15 14 12 11 10 8 5 4 3 3 1 1 1 2 3 5 6 8 9 8 8 8 7 7 7 10 9 8 8 7 12 14 11 8 13 11 15
13 12 19 18 17 16 14 13 12 11 10 9 8 8 7 7 7 5 4 4 4 6 8 9 9 10 9 8 8 8 8 10 9 8 12 12 13 13 13 13 15 14 15
13 11 14 17 17 16 14 13 11 11 10 11 10 9 9 10 10 10 8 7 6 7 9 10 11 11 11 9 8 8 7 9 8 8 13 6 8 15 16 13 16 20 18
15 12 13 19 19 18 15 13 12 11 11 12 11 9 11 11 12 12 11 11 10 9 10 11 12 12 12 11 9 8 8 9 9 7 7 7 7 16 14 16 18 19 19
14 14 14 19 17 15 14 12 11 11 13 12 11 10 10 12 13 13 13 14 13 13 12 12 13 12 12 11 11 8 8 8 8 6 6 7 6 12 17 18 19 19 18
9 11 14 16 14 11 11 10 11 12 11 10 11 11 11 12 12 12 14 16 15 15 16 14 14 13 11 11 10 10 8 8 7 4 5 6 6 14 18 22 20 19 18
8 9 10 14 11 11 10 9 8 5 4 3 7 9 10 11 11 12 13 15 16 16 16 17 15 12 10 10 9 8 8 8 4 4 5 6 6 16 18 20 20 20 19
12 9 8 14 13 13 12 11 10 8 6 4 5 7 9 11 13 14 15 16 17 18 18 17 17 14 11 10 9 8 8 8 6 4 5 5 10 18 20 20 20 20 19
11 12 9 9 12 15 12 11 10 10 9 8 6 7 9 12 15 16 16 18 19 19 19 18 18 16 12 11 10 10 10 9 5 3 4 4 12 20 22 21 20 20 21
8 8 9 8 6 6 6 13 13 11 11 9 8 7 7 9 11 15 16 16 18 18 18 17 18 17 13 11 10 10 10 11 5 4 4 4 18 22 23 21 20 19 17
7 8 6 8 8 7 7 7 12 14 13 11 7 4 1 2 6 9 11 14 19 18 19 15 18 16 13 13 12 11 11 3 5 3 3 13 19 24 25 24 16 15 15
6 6 7 8 7 5 2 3 5 6 5 5 3 2 3 4 5 7 10 13 11 14 18 15 17 17 14 4 4 11 3 5 4 4 3 15 21 25 26 23 22 20 16
8 6 7 7 7 6 1 2 2 2 2 2 5 4 4 3 4 3 3 3 2 5 3 7 8 6 5 5 4 4 5 5 3 4 6 15 23 26 26 25 24 21 19
8 7 8 8 6 4 2 1 2 1 2 3 4 6 4 3 4 4 3 3 3 2 4 4 3 5 6 7 7 7 7 5 3 3 4 17 22 25 26 26 26 22 20
9 7 8 7 6 5 3 3 3 3 2 4 3 4 5 4 4 3 3 2 2 3 4 4 4 4 6 6 6 7 7 6 6 3 2 17 19 20 22 24 22 20 19
9 8 7 6 6 5 4 5 4 4 5 4 3 4 7 5 4 3 3 3 3 3 4 5 5 5 5 5 6 6 6 3 6 5 4 8 17 19 24 26 27 24 19
8 9 7 6 6 6 6 5 4 4 4 4 4 5 4 4 4 4 4 3 4 3 5 5 4 4 4 5 6 5 5 5 5 6 5 6 8 25 25 26 27 25 21
9 8 6 3 6 5 4 4 3 4 4 4 4 3 5 4 4 4 4 4 4 4 4 4 4 3 4 4 3 3 4 3 5 8 8 7 6 8 18 25 25 25 25
9 9 5 4 2 2 3 4 4 4 2 3 3 3 3 4 5 4 4 4 4 4 4 4 3 3 4 3 3 3 3 2 5 8 11 10 10 8 7 20 21 22 23
9 9 6 3 3 2 3 3 2 2 2 3 2 3 5 4 5 4 4 4 4 3 3 3 4 3 3 4 5 4 1 4 5 9 10 9 9 10 7 7 7 11 18
10 9 6 4 4 1 2 1 1 2 2 2 3 6 6 5 6 4 3 3 4 5 5 5 3 3 3 3 5 4 2 2 6 8 9 8 10 9 9 9 7 7 7
10 9 6 5 3 1 1 2 2 1 3 2 3 2 3 5 6 4 4 4 5 4 5 5 4 2 2 3 5 5 3 3 5 7 9 8 10 8 9 10 13 9 8
9 8 7 5 5 2 2 3 2 2 3 2 1 1 2 1 5 4 4 4 4 4 4 4 5 5 3 1 4 5 4 3 5 5 11 9 11 9 8 10 11 9 8
8 8 7 7 4 2 2 4 3 1 2 2 1 1 2 4 3 3 4 4 4 2 5 5 4 4 5 3 2 2 3 5 3 6 7 9 9 10 10 9 8 7 7
8 8 8 7 5 4 3 2 2 3 3 2 2 4 2 2 2 4 3 4 4 3 4 7 6 7 5 3 3 2 4 5 3 3 9 8 7 8 7 8 7 6 6
8 8 7 7 5 4 4 4 6 5 5 4 3 2 2 0 1 4 4 4 3 3 5 5 6 5 5 4 3 3 6 4 5 4 8 10 9 8 8 7 7 6 6
Wind_Direction
168 166 171 169 168 170 172 173 179 179 183 184 198 224 254 276 267 305 320 273 263 264 269 272 276 283 285 285 286 297 310 313 301 209 145 186 174 168 171 178 151 134 121
148 172 171 168 168 177 179 183 188 189 188 199 209 218 216 240 260 258 259 270 267 271 267 266 269 269 277 284 285 289 300 308 300 203 168 193 185 176 167 186 147 135 127
142 161 169 170 172 180 188 190 192 195 200 210 221 228 225 232 249 267 273 274 269 265 266 262 260 263 272 277 276 279 288 299 304 212 203 197 180 178 183 163 146 143 133
152 160 174 177 178 185 190 192 196 204 208 217 227 231 236 238 240 252 259 263 262 259 254 257 252 256 257 267 273 271 282 289 310 228 203 198 185 180 174 148 146 140 140
164 167 175 180 181 188 192 193 199 208 217 221 226 234 238 243 245 247 249 259 260 259 256 253 255 248 256 262 269 265 273 275 301 251 201 212 193 174 168 151 150 148 150
138 164 164 175 177 187 197 204 210 221 230 234 240 247 249 250 252 247 252 255 256 256 260 252 250 247 252 262 269 283 257 255 288 258 225 219 196 172 167 159 162 156 149
106 125 144 158 163 176 197 209 224 233 225 243 262 262 259 260 260 262 260 258 257 253 251 251 242 239 240 261 268 275 275 255 261 249 238 209 192 175 161 158 157 152 144
135 131 144 151 163 173 188 193 170 169 167 205 241 259 264 263 261 259 258 257 256 257 254 247 238 231 232 244 269 274 264 248 262 255 247 205 195 175 163 161 153 146 144
128 147 155 163 179 179 181 174 178 177 193 209 229 255 267 269 267 266 265 261 255 251 253 244 229 227 220 238 249 262 249 237 245 250 240 204 194 173 159 153 147 148 151
162 165 165 178 155 144 170 179 191 189 204 204 213 240 249 266 279 272 268 263 257 249 250 239 224 224 221 232 240 255 241 235 239 243 208 176 169 164 154 145 149 147 149
180 169 141 127 120 143 184 197 197 210 208 199 219 230 256 270 258 268 276 257 247 246 242 230 220 223 222 229 233 245 231 210 225 226 169 176 178 171 156 148 145 134 161
145 102 108 107 107 91 15 99 203 236 170 183 190 245 210 240 254 270 277 281 279 251 234 221 214 219 216 202 224 235 208 211 225 208 171 177 175 168 158 154 148 159 174
138 124 130 119 111 108 70 336 297 319 161 175 211 214 221 241 258 276 286 287 275 268 239 208 204 211 191 195 220 209 208 205 228 193 183 183 183 173 166 168 166 165 163
116 120 107 110 116 123 119 281 287 146 184 228 223 214 201 230 241 246 259 282 239 220 195 180 190 193 209 206 211 207 198 195 209 180 195 180 181 182 181 175 170 174 159
116 119 114 116 130 149 168 243 259 274 272 267 244 233 198 212 242 250 260 256 257 211 189 196 203 198 213 224 216 209 199 194 186 156 151 178 181 177 177 165 155 147 165
127 123 127 130 157 162 197 222 237 235 243 248 258 258 228 191 217 226 259 265 248 213 200 190 203 212 220 216 228 212 180 182 173 154 148 157 166 170 166 153 154 161 180
138 128 138 175 172 179 217 237 236 239 241 241 249 249 220 197 217 218 243 257 244 226 194 184 205 208 225 236 222 181 127 184 161 147 128 142 168 169 164 161 162 162 157
126 135 152 132 144 208 215 255 227 237 238 235 242 229 221 237 238 226 233 238 231 203 187 180 181 206 239 212 175 143 134 188 156 130 135 137 139 150 163 164 160 158 160
130 131 145 130 134 218 295 277 231 267 259 230 234 207 222 240 251 231 223 242 217 194 179 178 183 176 211 179 170 102 110 209 135 136 125 137 136 137 143 159 166 167 165
133 125 126 143 204 195 285 313 248 274 283 232 247 211 212 227 250 253 226 242 185 175 180 160 193 203 188 173 154 117 228 175 131 145 138 135 139 138 131 133 155 154 160
126 132 157 185 213 156 308 302 295 264 253 229 230 239 228 212 229 249 210 240 186 175 183 181 172 203 219 157 118 68 13 58 132 135 141 130 132 131 119 113 127 120 137
138 148 172 184 185 187 263 250 175 252 270 201 199 244 250 224 205 216 210 219 193 164 181 176 156 105 136 173 150 137 135 55 107 136 128 131 129 125 124 122 133 126 132
144 155 172 174 147 170 337 358 357 2 337 350 321 271 283 254 175 185 193 178 193 160 171 157 144 137 147 151 135 129 122 168 144 152 127 134 127 130 124 124 122 128 137
152 156 149 148 156 170 68 49 53 87 299 278 230 77 58 44 188 169 167 180 188 162 139 132 133 146 130 155 71 46 111 129 134 138 131 129 128 123 128 127 131 129 140
147 153 148 145 145 162 134 124 63 13 299 307 46 92 86 19 13 172 165 140 167 178 151 128 128 140 147 149 133 139 68 81 94 129 134 130 118 124 128 127 129 124 148
141 140 143 152 172 194 153 84 80 55 12 31 47 64 72 85 251 160 149 132 132 113 143 154 156 172 124 135 151 135 136 126 134 111 115 129 129 127 125 126 125 144 148